CDT,Max TemperatureF,Mean TemperatureF,Min TemperatureF,Max Dew PointF,MeanDew PointF,Min DewpointF,Max Humidity, Mean Humidity, Min Humidity, Max Sea Level PressureIn, Mean Sea Level PressureIn, Min Sea Level PressureIn, Max VisibilityMiles, Mean VisibilityMiles, Min VisibilityMiles, Max Wind SpeedMPH, Mean Wind SpeedMPH, Max Gust SpeedMPH,PrecipitationIn, CloudCover, Events, WindDirDegrees
2014-3-1,8,3,-2,-1,-8,-15,73,59,46,30.42,30.27,30.07,10,10,10,15,10,23,0.00,2,,320
2014-3-2,10,0,-11,-12,-17,-23,62,48,33,30.46,30.41,30.33,10,10,10,13,8,22,0.00,0,,305
2014-3-3,19,0,-18,7,-5,-24,85,66,33,30.52,30.35,30.20,10,7,1,10,3,,0.00,4,Snow,254
2014-3-4,19,11,0,7,3,-3,88,72,48,30.40,30.22,30.15,10,6,1,7,2,,0.00,7,Snow,315
2014-3-5,17,2,-14,0,-9,-18,92,67,34,30.60,30.51,30.39,10,9,2,8,3,,0.00,2,,48
2014-3-6,26,6,-15,12,0,-20,92,73,51,30.52,30.28,29.96,10,6,0,18,5,24,0.00,5,Snow,169
2014-3-7,30,23,16,27,19,9,93,78,66,30.13,29.88,29.77,10,6,2,16,6,24,0.00,7,Snow,338
2014-3-8,27,16,1,14,6,-2,83,64,43,30.28,30.21,30.15,10,10,4,15,8,18,0.00,3,Snow,350
2014-3-9,41,20,0,27,14,-5,83,64,49,30.15,29.84,29.63,10,10,10,16,4,23,0.00,4,,214
2014-3-10,55,37,19,32,24,17,93,63,29,29.63,29.53,29.42,10,8,0,23,4,33,0.00,1,Fog,279
2014-3-11,44,36,25,27,24,17,75,62,45,29.94,29.76,29.59,10,10,7,16,9,22,0.00,4,Snow,340
2014-3-12,21,14,1,14,-1,-8,71,56,31,30.15,30.05,29.89,10,10,10,18,13,26,0.00,3,,7
2014-3-13,37,18,0,23,8,-7,76,63,52,30.11,29.85,29.58,10,10,10,12,5,,0.00,3,,167
2014-3-14,41,32,24,34,27,18,91,79,70,29.78,29.50,29.35,10,9,2,24,8,31,0.00,5,Rain,302
2014-3-15,24,16,5,18,7,-5,74,62,48,30.50,30.12,29.75,10,10,10,18,14,25,0.00,5,,343
2014-3-16,21,6,-8,0,-6,-14,79,56,26,30.56,30.43,30.19,10,10,10,9,3,,0.00,0,,154
2014-3-17,21,14,8,17,11,-5,86,76,53,30.16,29.87,29.75,10,5,0,22,9,29,0.00,7,Fog-Snow,147
2014-3-18,33,26,21,25,21,17,93,79,69,29.96,29.89,29.83,10,8,2,13,6,18,0.00,8,Snow,109
2014-3-19,35,32,28,30,26,21,93,83,74,29.88,29.71,29.62,10,4,0,20,7,24,0.00,8,Fog-Snow,339
2014-3-20,35,27,17,22,19,13,84,68,48,30.03,29.94,29.81,10,10,3,16,10,24,0.00,7,Snow,315
2014-3-21,37,23,9,27,20,5,100,77,54,30.03,29.87,29.75,10,7,2,13,3,20,0.00,5,Snow,134
2014-3-22,32,20,9,27,11,0,93,66,47,30.39,30.13,29.82,10,9,4,22,11,37,0.00,5,Snow,320
2014-3-23,23,10,0,2,0,-5,83,62,42,30.44,30.39,30.34,10,10,10,10,5,20,0.00,2,,309
2014-3-24,28,12,-4,7,-1,-10,79,56,29,30.35,30.16,29.97,10,10,10,16,4,24,0.00,1,,290
2014-3-25,19,10,1,7,0,-4,76,60,45,30.17,30.07,29.95,10,10,10,21,10,25,0.00,4,,312
2014-3-26,30,14,-2,18,4,-7,82,61,40,30.22,30.12,29.94,10,10,9,16,4,21,0.00,3,Snow,169
2014-3-27,35,30,24,32,29,19,96,88,80,29.90,29.62,29.48,10,2,0,12,7,,0.26,8,Fog-Snow,134
2014-3-28,36,31,26,30,22,18,89,72,50,30.26,29.93,29.51,10,10,6,20,12,26,0.00,5,Snow,338
2014-3-29,42,33,25,19,17,14,78,57,36,30.33,30.28,30.22,10,10,10,12,1,,0.00,3,,128
2014-3-30,48,36,23,29,21,11,73,56,42,30.24,30.09,29.98,10,10,10,16,7,22,0.00,0,,155
2014-3-31,46,38,30,33,29,26,85,68,50,30.04,29.88,29.61,10,10,8,16,5,24,0.02,5,Rain,133